Weather in Kunduzak

Uzbekistan     39°39′22″N   67°05′13″E
temp.,
°C
wind,
m/s
gust,
m/s
humid.,
%
clouds,
%
prec.,
mm/h
press.,
hPa
HPBL,
m
7 may, fri
fri723:00+17s117134 0.0 1016125
02:00+17ese11695 0.0 101528
05:00+16se22715 0.0 101654
08:00+19ese225695 0.0 1016287
11:00+24wnw114114 0.0 10151264
14:00+25nw123868 0.0 10141757
17:00+26nne213675 0.0 10141867
20:00+23e344869 0.0 1014148
8 may, sat
sat823:00+20ese225472 0.0 101475
02:00+19ese2259100 0.0 101451
05:00+18ese346185 0.0 101475
08:00+22ese125159 0.0 1015230
11:00+27ne11351 0.0 10141492
14:00+30nne22271 0.0 10122734
17:00+29ne432779 0.0 10112501
20:00+25e47385 0.0 1012236
9 may, sun
sun923:00+23e234358 0.0 101283
02:00+21ese344987 0.0 101198
05:00+20e2354100 0.0 101257
08:00+22ese464287 0.0 1014487
11:00+25ene4437100 0.1 1013670
14:00+28nne333067 0.0 10111429
17:00+27ene643396 0.0 10111343
20:00+22ene484595 0.3 1012361
10 may, mon
mon1023:00+20e41052100 0.3 1011361
02:00+19e256073 0.0 1010213
05:00+18e2364100 0.0 1010174
08:00+20e4749100 0.2 1011592
11:00+22ene4438100 0.8 1012759
14:00+23ene444019 1.6 10121098
17:00+22e464464 6.0 1011778
20:00+19e37470 0.2 1013374
11 may, tue
tue1123:00+19ne383832 0.1 1012303
02:00+16e23500 0.0 1014115
05:00+14e24450 0.0 1015120
08:00+18ene35360 0.0 1015402
11:00+23ne45270 0.0 10141165
14:00+25ne44240 0.0 10141623
17:00+25ne67220 0.0 10141802
20:00+20ne49350 0.0 1014446